Theta_e
317 316 315 314 312 310 309 308 307 306 305 304 304 303 303 302 301 300 299 298 298 297 296 296 296 296 296 296 296 296 296 296 296 296 296 296 296 296 296 296 296 295 295 295 295 295 295 295 295 295 295 295 295 295 295 295 295 295 295 295 295 294 294 294 294 294 294 294 294 294 295 295 295 295 295 295 295 295 295 295 295 295 294 294 294 294
315 313 311 309 307 306 304 304 303 303 302 301 301 301 300 300 299 298 298 297 297 296 296 296 296 296 296 296 296 296 296 296 296 296 295 295 295 295 295 295 295 295 295 295 295 295 295 295 295 295 295 295 295 295 295 295 295 295 295 295 294 294 294 294 294 294 293 294 294 294 294 294 294 294 294 294 294 294 294 294 293 293 293 293 293 293
310 307 305 304 303 301 301 300 300 300 299 299 298 298 298 297 297 296 296 296 296 296 296 296 296 296 296 296 296 296 296 296 295 295 295 295 295 295 295 295 295 295 295 295 295 295 295 295 295 295 295 295 295 295 295 295 295 295 294 294 294 294 294 294 293 293 293 293 293 293 293 293 293 293 293 293 293 293 293 293 293 293 293 293 293 293
304 301 300 299 299 298 298 298 298 297 297 297 297 296 296 296 296 296 296 296 296 295 295 295 296 296 296 296 296 296 295 295 295 295 295 295 295 295 295 295 295 295 295 295 295 295 295 295 295 295 295 295 295 295 295 294 294 294 294 294 294 294 293 293 293 293 293 293 293 293 292 292 292 292 292 292 292 292 292 292 292 292 293 293 293 293
299 297 296 296 296 296 296 296 296 296 296 296 295 295 295 295 295 295 295 295 295 295 295 295 295 296 295 295 295 295 295 295 295 295 295 295 295 295 295 295 295 295 295 295 295 295 295 295 295 294 294 294 294 294 294 294 294 294 294 293 293 293 293 293 293 293 293 293 293 292 292 292 292 292 292 292 292 292 292 292 292 292 292 292 293 293
296 295 294 294 295 295 295 295 295 295 295 295 295 295 295 295 295 295 295 295 295 295 295 295 295 295 295 295 295 295 295 295 295 295 295 295 295 295 295 295 295 295 295 295 295 294 294 294 294 294 294 294 294 294 294 294 294 293 293 293 293 293 293 293 293 293 293 293 293 292 292 292 292 292 292 292 292 292 292 292 292 292 292 292 292 293
294 294 294 294 294 294 294 294 294 294 295 295 294 295 295 295 295 295 295 295 295 295 295 295 295 295 295 295 295 295 295 295 295 295 295 295 295 295 295 295 295 294 294 294 294 294 294 294 294 294 294 294 294 294 294 294 293 293 293 293 293 293 293 293 293 293 293 293 293 292 292 292 292 292 292 292 292 292 292 292 292 292 292 292 292 292
294 294 294 294 294 294 294 294 294 294 294 294 294 294 294 294 294 294 294 294 295 295 295 295 295 295 295 295 295 295 295 295 295 294 294 294 294 294 294 294 294 294 294 294 294 294 294 294 294 294 294 294 294 294 293 293 293 293 293 293 293 293 293 293 293 293 293 293 292 292 292 292 292 292 292 292 292 292 292 292 292 292 292 292 292 292
294 294 294 294 294 294 294 294 294 294 294 294 294 294 294 294 294 294 294 294 294 294 294 294 294 294 294 294 294 294 294 294 294 294 294 294 294 294 294 294 294 294 294 293 293 293 293 293 293 293 293 293 293 293 293 293 293 293 293 293 293 293 293 293 293 293 293 292 292 292 292 292 292 292 292 292 292 292 292 292 292 292 292 292 292 292
293 293 293 293 293 293 294 293 294 294 294 294 293 293 293 293 294 294 294 294 294 294 294 294 294 294 294 294 294 294 294 294 294 294 294 294 294 294 294 294 294 294 293 293 293 293 293 293 293 293 293 293 293 293 293 293 293 293 293 293 293 293 293 293 293 292 292 292 292 292 292 292 292 292 292 292 292 292 292 292 291 291 291 291 292 292
295 295 294 294 294 294 295 295 295 295 296 296 295 295 294 294 294 293 293 294 294 294 294 294 294 294 294 294 294 294 294 294 294 293 294 294 294 294 294 293 293 293 293 293 293 293 293 293 293 293 293 293 293 293 293 292 293 293 292 292 292 292 292 292 292 292 292 292 292 292 292 292 292 292 292 292 292 291 291 291 291 291 291 291 291 291
297 297 297 297 297 298 298 299 299 299 298 298 297 296 296 295 294 294 293 293 293 294 294 294 294 294 294 294 294 294 294 294 294 293 293 293 293 293 293 293 293 293 293 293 293 292 292 292 292 292 292 292 292 292 292 292 292 292 292 292 292 292 292 292 292 292 292 292 292 292 292 292 292 292 292 291 291 291 291 291 291 291 291 291 291 291
297 297 297 298 298 299 299 299 298 298 297 296 295 294 294 294 294 293 293 293 293 293 293 294 294 294 294 294 294 294 294 294 294 294 293 293 293 293 293 293 293 292 292 292 293 292 292 293 292 292 292 293 293 293 292 292 292 292 292 292 292 292 292 292 292 292 292 292 292 292 292 292 291 291 291 291 291 291 291 291 291 291 291 291 291 291
298 297 297 296 296 295 295 295 295 294 294 293 293 293 293 293 293 293 293 293 293 293 293 293 294 294 294 293 293 293 293 293 293 293 294 294 293 293 293 293 293 293 293 293 293 293 293 293 293 293 293 293 293 293 292 292 292 292 292 292 292 292 292 292 292 292 292 292 292 292 292 291 291 291 291 291 291 291 291 291 291 291 290 290 290 290
299 298 297 295 294 293 293 293 293 293 292 292 292 292 292 292 292 293 293 292 292 293 293 293 293 293 293 293 293 293 293 293 293 294 294 294 294 294 294 294 293 293 293 293 293 293 293 293 293 293 293 293 293 292 292 292 292 292 292 292 292 292 292 292 292 292 292 291 291 291 291 291 291 291 291 291 291 291 291 290 290 290 290 290 290 290
299 298 297 296 295 294 294 293 293 293 293 293 292 292 292 292 292 292 292 292 292 293 293 293 293 293 293 293 293 293 293 293 293 293 294 294 294 294 294 294 293 293 293 294 294 294 293 293 293 293 293 293 292 292 292 292 292 292 292 292 292 292 292 292 292 291 291 291 291 291 291 291 291 291 291 291 291 290 290 290 290 290 290 290 290 290
297 297 297 296 295 295 294 294 293 293 293 293 292 292 292 292 292 292 292 292 292 292 292 292 293 293 293 293 293 293 293 293 293 293 294 294 294 294 293 293 293 293 293 294 294 294 294 293 293 293 293 293 292 292 292 292 292 292 292 292 292 292 291 291 291 291 291 291 291 291 291 291 291 290 290 290 290 290 290 290 290 290 290 290 290 290
295 295 295 295 294 294 293 293 293 292 292 292 292 291 291 291 292 292 292 292 292 292 292 292 292 292 293 293 293 293 293 293 293 293 293 294 294 294 293 293 293 293 293 294 294 294 294 293 293 293 293 293 292 292 292 292 292 292 292 292 291 291 291 291 291 291 291 291 291 291 291 291 290 290 290 290 290 290 290 290 290 290 290 289 289 289
293 293 294 293 293 293 292 292 292 292 292 291 291 291 291 291 291 292 292 292 291 291 291 291 292 292 292 293 293 292 292 292 292 292 292 293 294 294 293 293 293 293 293 294 294 294 293 293 293 293 293 292 292 292 292 292 292 292 292 292 291 291 291 291 291 291 291 291 291 291 291 291 290 290 290 290 290 290 290 290 290 290 289 289 289 289
292 292 292 292 292 292 291 291 291 291 291 291 291 291 291 291 291 291 291 291 291 291 291 291 291 292 292 293 293 292 292 292 292 291 291 292 293 294 293 293 293 293 293 294 294 294 293 293 293 293 293 293 292 292 292 292 292 292 292 291 291 291 291 291 291 291 291 291 291 290 290 290 290 290 290 290 290 290 290 290 290 289 289 289 289 289
292 292 291 291 291 291 291 291 291 291 290 290 290 290 290 291 291 291 291 291 291 291 291 291 291 291 292 292 292 292 291 291 291 290 291 292 293 293 293 292 292 293 293 294 294 293 293 293 293 293 293 293 293 293 293 293 293 292 292 292 291 291 291 291 291 291 291 291 290 290 290 290 290 290 290 290 290 290 290 290 290 290 289 289 289 289
291 291 291 291 290 290 290 290 290 290 290 290 290 290 290 290 291 291 291 291 291 291 291 291 291 291 291 291 292 291 291 291 290 290 290 291 292 293 292 292 292 292 293 294 294 293 293 293 293 293 293 293 293 293 293 293 293 292 292 292 291 291 291 291 291 291 291 291 291 290 290 290 290 290 290 290 290 290 290 290 290 290 290 289 289 289
290 290 289 290 290 290 290 290 290 290 290 290 290 290 290 290 290 290 290 291 291 291 290 290 290 290 291 291 291 291 291 290 290 289 289 290 291 292 292 292 292 292 293 293 293 293 293 294 294 294 293 293 293 293 293 293 293 292 292 292 292 292 291 291 291 291 291 291 291 291 290 290 290 290 290 290 290 290 290 290 290 290 290 290 290 290
289 289 289 289 289 290 290 290 290 290 290 290 290 290 290 290 290 290 290 290 290 290 290 290 290 290 291 291 291 291 290 290 289 289 289 289 290 291 291 291 291 292 292 293 293 293 293 294 294 294 293 293 293 293 293 293 293 292 292 292 292 291 291 291 291 291 291 291 291 291 290 290 290 290 290 290 290 290 290 290 290 290 290 290 290 290
288 288 289 289 289 289 289 289 289 290 290 289 289 289 289 289 290 290 290 290 290 289 289 289 290 290 291 291 291 291 290 290 289 289 288 289 290 291 291 291 291 291 292 292 293 293 293 294 294 294 293 293 293 293 293 293 293 292 292 292 291 291 291 291 291 291 291 291 291 290 290 290 290 290 290 290 290 290 290 290 290 290 290 290 290 290
288 288 289 289 289 289 289 289 289 289 289 288 288 288 288 288 288 289 289 289 289 289 289 289 290 290 290 291 291 291 290 290 289 289 288 288 289 290 291 290 290 290 291 292 293 293 293 294 294 294 293 293 293 293 293 293 292 292 292 291 291 291 291 291 291 291 291 291 291 290 290 290 290 290 290 290 290 290 290 290 290 290 290 290 290 290
288 288 288 289 289 289 289 289 289 289 289 289 288 288 287 288 288 288 289 289 289 289 289 289 289 290 290 290 290 290 290 289 289 289 288 288 289 290 290 290 289 290 290 291 292 292 293 293 293 293 293 293 293 293 293 292 292 292 292 291 291 291 291 291 291 291 291 290 290 290 290 290 290 289 289 290 290 290 290 290 290 290 290 289 289 289
288 288 288 289 289 289 289 289 289 289 289 289 289 288 288 288 288 289 289 289 289 288 289 289 289 289 289 289 290 290 290 289 289 288 288 288 288 289 289 289 289 289 289 290 291 292 292 292 293 293 293 293 293 292 292 292 292 292 291 291 291 291 291 291 291 291 291 290 290 290 290 289 289 289 289 289 290 290 290 290 290 289 289 289 289 289
288 288 288 289 289 289 289 289 289 289 289 289 289 288 288 288 288 289 289 289 289 289 289 289 288 288 288 289 289 289 289 289 289 288 288 288 288 288 289 288 288 288 288 289 290 291 292 292 292 292 292 292 292 292 292 292 292 292 292 292 292 291 291 291 291 291 290 290 290 290 290 289 289 289 289 289 290 290 290 290 289 289 289 289 289 289
288 288 288 288 288 288 289 289 289 289 289 289 288 288 288 288 288 288 288 289 289 289 289 289 288 288 288 288 288 289 289 289 288 288 288 288 288 288 288 288 288 288 287 287 288 289 290 291 291 291 291 291 292 292 292 292 292 292 292 292 292 291 291 291 291 291 290 290 290 290 289 289 289 289 289 290 290 290 290 290 289 289 288 288 288 288
288 288 288 288 288 288 288 289 289 289 289 289 288 288 288 288 288 288 288 289 288 288 288 288 288 288 288 287 287 287 288 288 288 288 288 287 288 288 288 288 288 288 287 286 285 286 287 289 290 291 290 291 291 292 292 292 292 291 291 291 291 291 291 291 290 290 290 290 290 290 289 289 289 289 289 290 290 290 290 289 289 288 288 287 287 288
288 288 288 288 288 288 288 288 288 288 288 288 288 288 288 288 288 288 288 288 288 288 288 288 288 288 288 288 287 287 288 289 288 288 287 287 287 288 288 287 288 288 287 286 285 284 285 286 289 290 290 290 291 291 292 291 291 291 291 291 291 291 291 291 290 290 290 290 290 289 289 289 289 289 289 289 290 289 289 289 288 288 287 287 287 287
288 288 288 288 288 288 288 288 288 288 288 288 287 288 288 288 288 288 288 288 288 288 288 288 288 288 288 288 288 289 289 289 289 288 287 287 287 287 287 287 287 287 287 286 285 284 284 285 286 288 289 290 290 290 291 291 291 291 290 290 291 291 291 291 290 290 290 290 289 289 289 289 289 289 289 289 289 289 289 288 288 287 287 286 286 287
288 288 288 288 288 288 288 288 288 288 288 288 288 288 288 288 288 288 288 288 288 288 288 288 288 288 288 288 289 289 289 289 289 288 287 287 286 287 287 287 287 287 286 286 285 285 284 284 284 285 286 288 289 289 289 290 290 290 290 290 290 290 291 290 290 290 290 289 289 289 289 289 289 289 289 289 289 289 289 288 288 287 287 286 286 286
287 287 288 288 288 288 288 288 288 288 288 288 288 288 288 288 288 288 288 288 288 288 288 288 288 288 288 288 288 289 289 289 288 287 287 286 286 286 287 287 287 286 286 285 285 284 284 284 284 284 284 286 287 288 289 289 289 289 290 290 290 290 290 290 290 290 289 289 289 288 288 288 288 289 289 289 289 289 288 288 288 287 287 286 286 286
287 287 288 288 288 288 288 288 288 288 288 287 288 288 288 288 288 288 288 288 288 288 288 288 288 288 288 288 288 289 289 289 288 288 287 286 286 286 286 286 286 286 285 285 284 284 284 284 284 284 284 284 285 287 288 288 288 289 289 290 290 290 290 290 289 289 289 288 288 288 288 288 288 288 289 289 288 288 288 288 288 287 287 287 286 286
287 287 288 288 288 288 288 288 287 287 287 287 287 287 287 288 288 288 288 288 288 288 288 288 288 288 288 288 288 288 289 289 289 288 287 286 286 286 286 286 286 285 285 284 284 283 283 283 284 284 284 284 284 285 286 287 288 288 289 289 289 289 289 289 289 288 288 288 288 288 288 288 288 288 288 288 288 288 288 288 287 287 287 287 287 287
287 288 288 288 288 287 287 287 287 287 287 287 287 287 287 287 287 288 288 288 288 288 288 288 288 288 288 288 288 288 288 288 288 288 287 286 286 286 286 286 286 285 284 284 284 283 283 283 283 283 283 284 284 284 285 286 286 287 288 289 289 288 289 288 288 288 287 287 287 288 288 288 288 288 288 288 287 287 287 287 287 287 287 287 287 287
288 288 287 287 287 287 287 286 286 286 287 287 287 287 287 287 288 288 288 288 288 288 288 288 288 288 288 288 288 288 288 288 288 287 287 286 286 286 286 285 285 285 285 284 284 283 283 283 283 283 283 283 284 284 285 285 286 286 287 288 288 288 288 288 288 287 287 287 287 287 288 288 287 287 287 287 286 286 286 286 287 286 286 287 287 288
287 287 287 287 287 286 286 286 286 286 287 287 287 287 287 287 288 288 288 288 288 288 288 288 288 288 288 288 288 288 288 288 287 287 287 286 286 286 286 285 285 285 285 284 284 283 283 283 283 283 283 283 283 283 284 285 286 286 286 287 287 288 288 288 287 287 287 287 287 287 287 287 287 286 286 286 286 285 285 286 286 286 286 286 287 288
287 287 287 286 286 286 286 286 286 286 287 287 287 287 287 288 288 288 288 288 288 288 288 288 288 288 288 288 288 288 288 287 287 287 286 286 286 286 286 286 285 285 284 284 283 283 282 283 283 283 283 282 283 283 284 285 286 286 286 286 286 287 287 287 287 287 287 287 287 286 286 286 286 286 285 285 285 285 285 285 285 286 286 286 287 287
286 286 286 286 286 286 286 286 286 286 287 287 287 287 287 288 288 288 288 288 288 288 288 288 288 288 289 289 288 288 287 287 287 287 286 286 286 286 286 286 285 284 284 283 283 282 282 282 283 283 283 283 283 283 284 285 286 286 286 286 286 286 287 287 287 286 286 286 286 286 286 285 285 285 285 285 285 284 284 284 285 285 286 286 287 288
286 286 286 286 286 286 286 286 286 286 287 287 287 287 287 287 287 287 288 288 288 288 288 288 288 289 289 289 289 288 288 287 287 287 287 287 287 286 286 285 284 283 283 283 283 282 282 282 282 283 283 283 283 283 284 285 286 286 286 286 285 285 285 286 287 286 286 285 285 285 285 285 285 284 284 284 284 284 284 284 284 285 286 286 287 288
286 286 286 286 286 286 286 286 286 286 287 287 287 287 287 287 287 287 287 287 288 288 288 288 288 289 289 289 289 289 288 288 288 287 287 287 287 286 286 285 284 283 282 282 283 283 282 282 283 283 283 283 283 283 284 285 286 286 286 286 285 285 285 285 285 285 285 285 285 285 284 284 284 284 284 284 284 284 284 284 285 286 286 287 288 288
286 286 286 286 286 286 286 286 286 286 287 287 287 287 287 287 287 287 287 287 287 288 288 288 288 288 288 288 288 288 289 288 288 288 287 287 286 286 285 285 284 283 282 282 282 282 282 283 283 283 284 284 284 284 284 285 285 286 286 286 285 285 285 284 284 284 284 284 284 284 284 283 283 283 283 283 284 284 284 284 285 286 287 288 288 288
286 286 286 286 286 286 286 286 286 286 287 287 287 287 287 286 286 286 287 287 287 288 288 288 288 287 287 288 288 288 288 288 288 287 287 286 286 285 285 284 284 283 283 282 282 282 282 283 283 283 284 284 284 285 285 285 285 285 285 285 285 284 284 284 284 284 284 283 283 284 284 283 283 283 283 283 283 284 284 285 285 286 287 288 288 288
286 286 286 286 286 286 286 286 286 286 286 287 287 286 286 286 286 286 286 287 287 287 288 288 287 287 287 287 287 287 287 287 287 286 286 286 285 285 284 284 284 283 283 283 282 282 283 283 283 283 283 284 284 285 286 285 285 285 285 285 284 284 284 284 284 284 283 283 283 283 283 283 282 282 283 283 283 284 285 286 286 286 287 287 288 288
286 286 286 286 286 286 286 286 286 286 286 286 286 286 286 286 286 286 286 286 287 287 287 287 286 286 286 286 286 286 286 286 285 285 285 285 284 284 284 284 284 283 283 283 283 283 283 283 283 283 283 283 284 284 285 285 285 285 284 284 284 283 283 283 283 283 283 283 283 283 282 282 282 282 282 282 283 284 285 286 286 287 287 287 287 288
286 286 286 286 286 286 285 285 285 285 285 286 286 286 286 286 286 286 286 286 287 287 286 286 286 286 286 286 286 285 285 285 284 284 284 284 284 283 283 283 283 283 283 283 283 283 283 283 283 283 283 283 284 284 284 285 285 284 284 283 283 283 283 283 283 283 283 283 283 282 282 282 282 282 282 282 282 284 285 286 286 287 287 287 287 287
286 286 286 286 285 285 285 285 285 285 285 285 286 286 286 286 286 286 286 286 286 286 285 285 285 285 285 285 285 284 284 283 283 283 283 283 283 283 282 282 282 282 282 282 282 282 282 282 282 283 283 283 283 283 284 284 284 284 283 283 283 283 283 283 283 283 283 282 282 282 282 282 282 282 281 281 282 283 284 285 286 287 287 287 287 287
286 286 286 285 285 284 284 284 285 285 285 285 286 286 286 286 286 286 286 286 286 285 285 285 284 284 284 284 284 283 283 282 282 282 282 283 282 282 281 281 281 281 281 281 281 281 281 281 282 282 283 284 283 283 283 283 283 283 283 283 283 283 282 282 282 283 283 282 282 282 282 282 282 281 281 282 282 282 283 284 285 287 287 287 287 287
Wind_Speed
19 18 18 18 19 20 21 21 21 23 24 25 25 25 26 27 27 27 27 27 28 28 28 29 29 29 30 30 30 30 30 30 30 30 30 30 30 30 30 30 30 29 29 29 29 30 30 30 30 30 30 30 30 31 31 31 31 32 32 33 33 33 33 32 32 32 31 31 30 29 29 28 28 29 29 30 30 31 31 32 32 33 33 33 32 32
20 19 19 19 19 20 21 21 21 22 24 25 25 25 26 26 27 27 27 27 28 28 28 28 29 29 30 30 30 30 30 30 30 30 30 30 30 30 30 29 29 29 29 29 30 30 30 30 30 30 31 31 31 31 31 31 32 32 33 33 33 34 33 33 33 33 32 32 32 31 31 31 31 31 31 32 32 32 33 33 33 33 33 33 33 32
19 19 20 20 20 21 22 22 22 23 24 25 25 25 25 25 26 26 26 27 27 28 28 28 29 29 30 30 29 29 30 30 30 30 30 30 30 30 29 29 29 29 29 30 30 30 30 30 30 30 31 31 31 31 31 31 32 32 33 33 34 34 34 34 33 33 33 33 33 33 33 33 32 32 32 32 32 32 33 33 33 33 33 32 32 31
19 20 21 21 21 21 22 22 22 23 24 24 24 24 24 25 25 26 26 26 27 27 28 29 29 29 29 29 29 29 29 30 30 30 30 29 29 29 29 29 29 29 29 30 30 30 30 30 30 30 30 31 31 31 31 32 32 33 33 33 34 34 34 34 34 34 34 33 33 33 33 33 33 33 33 33 33 33 33 33 33 33 32 32 32 31
20 22 22 22 21 22 22 22 22 22 23 23 23 24 24 24 25 25 26 26 26 27 28 29 29 29 29 29 28 28 29 29 29 29 29 29 29 29 29 29 29 29 29 30 30 30 30 30 30 30 30 30 31 31 31 32 32 33 33 33 33 33 33 33 33 33 33 34 34 34 34 34 34 34 34 34 34 34 34 33 33 33 33 33 32 31
21 22 22 21 21 21 21 21 21 22 22 22 23 23 24 24 25 25 25 26 26 27 28 28 29 29 28 28 28 28 28 29 29 29 29 29 29 29 29 29 29 29 29 30 30 30 30 30 30 30 30 30 31 31 31 32 32 32 33 33 33 33 33 33 33 34 34 34 34 34 34 34 35 35 35 35 35 35 35 35 34 34 34 33 33 32
21 21 21 20 19 19 19 20 20 21 21 22 22 23 23 24 25 25 25 26 27 27 28 28 28 28 28 27 27 28 28 28 28 29 29 29 29 29 29 29 29 29 29 29 29 29 29 29 30 30 30 30 31 31 31 32 32 32 33 33 33 33 33 33 33 34 34 34 34 34 35 35 35 35 35 36 36 36 36 36 35 35 34 34 33 33
20 20 19 18 18 18 18 19 19 20 20 21 22 23 23 24 25 25 26 26 27 27 27 28 28 27 27 27 27 27 28 28 28 28 28 28 29 29 29 29 29 29 29 29 29 29 29 29 29 30 30 30 31 31 32 32 32 33 33 33 33 33 34 34 34 34 34 35 35 35 35 35 35 36 36 36 36 36 36 36 36 36 35 34 34 33
18 17 17 17 16 16 17 18 19 19 20 21 22 23 23 24 25 26 26 26 26 27 27 27 27 27 26 26 26 27 27 27 27 28 28 28 28 28 28 29 29 29 28 28 28 28 28 28 29 29 30 30 31 31 32 32 33 33 33 34 34 34 34 34 35 35 35 35 35 36 36 36 36 36 36 36 36 36 36 36 36 36 35 34 33 33
16 16 15 16 16 16 16 17 18 19 20 21 23 23 23 24 25 26 26 26 26 26 27 27 27 26 25 24 25 25 26 27 27 27 28 28 28 28 28 28 28 28 27 27 27 27 27 28 28 29 30 31 31 32 32 33 33 34 34 34 34 34 35 35 35 35 36 36 36 36 36 36 36 36 36 36 36 36 36 36 36 35 35 34 34 33
15 15 15 15 16 17 17 19 20 21 21 23 24 25 25 25 26 27 27 27 26 25 26 26 26 25 24 24 24 24 25 26 27 27 27 27 27 27 27 27 27 27 26 26 26 26 26 27 28 29 30 31 31 32 33 33 33 34 34 34 34 34 34 35 35 35 35 35 35 35 35 35 35 35 35 35 36 36 36 36 36 36 36 35 35 35
14 15 16 17 17 18 19 21 22 23 24 24 25 26 26 26 26 27 27 26 25 24 25 26 26 25 24 24 24 25 25 26 26 27 27 26 26 26 26 26 26 25 25 25 25 25 26 27 28 29 30 30 31 31 32 32 32 32 32 32 33 33 33 33 33 33 33 33 34 34 34 34 34 34 35 35 35 36 36 36 36 36 36 37 37 37
15 16 17 18 19 20 21 22 24 24 24 25 25 25 25 26 26 26 27 26 25 25 25 26 26 25 24 24 25 25 26 26 26 26 26 25 24 24 24 25 25 24 23 24 24 24 24 26 27 28 28 28 29 29 29 29 29 29 29 30 30 30 30 30 31 31 31 32 32 32 33 33 33 34 34 35 35 36 36 36 37 37 37 37 38 38
16 16 17 18 19 20 21 22 23 23 24 24 24 24 25 25 25 26 26 26 26 26 26 26 26 26 24 24 24 25 26 26 26 26 25 24 23 23 23 24 24 23 23 23 23 23 23 24 25 26 26 26 26 26 26 26 26 26 26 26 27 27 27 28 28 29 29 30 30 31 31 32 32 33 34 34 35 35 36 36 37 37 37 38 38 37
17 16 16 16 18 19 20 21 22 23 23 24 24 25 25 25 26 26 26 26 26 27 26 27 27 26 24 23 23 24 26 26 26 26 25 23 22 21 22 24 24 23 22 21 22 22 22 22 23 24 23 23 22 22 22 22 22 23 23 24 24 25 25 26 26 27 27 28 28 29 30 30 31 32 32 33 34 34 35 35 36 36 37 37 37 35
17 16 16 17 18 19 20 22 23 23 24 24 25 25 26 26 26 26 26 26 27 27 27 27 27 26 24 22 22 23 24 26 27 26 25 24 22 20 21 23 24 23 21 20 21 21 21 21 22 22 21 20 19 19 19 20 20 21 22 22 23 23 24 24 24 25 25 26 26 27 28 29 29 30 31 32 32 33 34 34 35 35 36 36 36 36
17 17 17 18 19 20 21 23 24 24 25 25 25 26 26 25 25 25 25 26 27 27 27 27 27 27 26 23 21 21 23 25 27 27 26 24 22 20 20 22 23 23 21 20 20 20 21 21 20 19 19 18 17 18 18 19 20 20 21 21 21 22 22 22 22 23 23 24 25 26 27 27 28 29 30 31 32 32 33 33 34 34 35 36 36 36
17 17 17 19 20 21 22 23 24 24 25 25 25 25 25 24 24 24 24 25 25 25 26 26 26 26 27 25 23 21 22 25 27 28 27 26 23 20 19 21 22 22 21 20 19 20 20 20 19 18 17 17 17 17 18 18 19 19 19 20 20 20 20 21 21 22 23 23 24 25 26 27 27 28 29 30 30 31 32 32 33 33 34 34 35 36
18 17 18 19 20 21 23 23 24 24 24 24 23 23 23 23 23 23 23 23 23 24 24 24 25 26 26 25 24 22 22 24 26 28 29 27 25 22 20 21 22 22 21 20 19 19 20 19 18 17 17 17 17 17 17 18 18 18 18 18 18 18 19 19 20 21 22 23 24 24 25 25 26 27 27 28 29 30 30 31 31 32 33 34 34 35
18 18 18 19 20 21 22 22 23 23 23 23 23 23 23 23 23 22 22 22 22 23 23 24 24 25 25 25 24 22 22 23 25 28 29 28 26 23 21 22 22 23 21 20 19 19 20 19 18 17 17 17 18 17 17 17 17 17 17 17 17 17 18 18 19 20 21 21 22 23 23 24 24 25 26 27 28 29 29 30 31 32 32 33 34 35
19 19 19 19 20 21 22 22 22 23 23 23 23 23 23 23 23 22 22 21 22 23 23 24 24 25 25 24 24 22 22 23 25 27 29 29 28 25 23 22 23 23 22 20 20 20 20 20 19 18 18 18 18 18 18 17 17 16 16 16 16 17 17 17 17 18 18 19 20 20 21 22 23 24 24 26 27 28 29 29 30 31 32 33 33 34
19 20 19 20 20 21 22 22 22 22 23 23 23 23 23 22 22 21 21 21 22 22 23 23 24 24 23 23 23 22 22 23 24 26 28 30 29 26 23 23 23 23 22 21 21 21 21 21 20 20 20 20 20 19 18 18 17 17 17 17 17 17 17 16 17 17 17 18 18 19 20 21 22 23 24 25 26 27 28 28 29 30 30 31 32 33
20 20 19 20 20 22 22 22 22 22 22 22 22 22 22 21 21 21 21 21 21 22 23 23 23 23 23 23 24 23 23 23 24 25 27 29 29 28 24 23 24 24 24 23 23 22 22 21 21 21 21 21 21 20 19 18 18 18 18 18 18 18 18 18 18 18 18 19 19 20 21 22 23 23 24 25 25 26 27 27 28 28 29 29 30 30
21 21 21 21 21 22 23 23 22 22 22 21 21 21 21 21 20 19 19 20 20 21 22 23 24 24 25 25 25 24 23 22 23 24 26 28 29 28 25 24 24 25 25 25 24 24 24 22 22 22 22 22 22 21 20 19 19 19 19 19 19 19 19 19 19 20 20 21 21 22 23 23 24 24 24 25 25 26 26 27 27 27 28 28 29 29
22 22 22 22 22 22 23 22 22 20 20 19 19 19 20 19 19 19 19 20 21 22 23 24 25 26 26 26 26 25 24 23 23 24 25 27 28 28 25 24 25 27 28 27 26 25 25 24 23 23 24 23 23 22 21 20 20 20 20 20 20 20 20 20 21 21 22 22 23 24 24 25 25 25 25 25 26 26 26 27 27 28 28 29 29 30
23 23 23 23 23 23 23 22 20 18 16 16 17 18 18 18 19 20 20 21 22 23 24 26 27 28 27 27 27 26 25 24 24 24 25 26 27 27 25 25 26 28 30 29 28 27 27 26 25 25 25 24 24 23 23 22 22 22 22 21 21 21 21 21 22 22 23 24 25 25 26 26 26 26 26 26 26 27 27 27 28 28 29 29 30 31
23 24 24 24 23 23 23 23 21 19 17 18 18 18 18 19 20 21 22 22 23 24 25 26 28 28 28 28 27 27 26 26 25 24 23 23 25 26 26 26 27 29 31 32 31 29 29 29 28 27 26 25 25 25 25 25 25 24 23 23 22 22 22 22 23 24 25 25 26 27 27 27 27 27 27 27 27 27 28 28 28 29 29 29 30 32
24 25 25 24 24 24 23 23 22 21 20 19 19 19 20 20 21 22 23 23 23 24 25 26 27 28 28 28 28 27 27 26 25 23 22 22 23 25 27 27 28 30 32 33 33 32 31 30 29 28 27 27 27 27 27 27 27 26 25 24 23 23 23 24 24 25 26 27 27 28 28 28 27 27 27 27 27 27 28 28 28 28 29 30 31 32
25 25 25 24 24 24 23 23 22 21 20 19 19 19 20 21 21 22 23 22 23 24 24 25 26 27 28 29 29 28 28 25 23 21 21 21 23 26 27 28 29 30 32 34 35 35 33 32 30 29 28 28 29 29 30 29 29 27 26 25 25 24 25 25 26 27 28 28 29 29 29 28 28 28 27 27 27 27 27 27 28 28 29 30 31 32
24 24 24 24 23 23 23 22 21 20 19 19 19 19 20 20 21 22 22 22 22 23 24 25 25 26 27 28 29 29 27 23 21 20 21 21 24 27 28 28 29 29 30 32 34 36 36 34 31 30 30 30 31 31 31 31 30 29 28 27 27 27 27 27 28 29 29 30 30 30 30 29 29 28 28 28 28 27 27 27 27 27 29 30 31 32
22 22 22 22 22 22 22 21 21 20 19 19 18 19 20 20 21 21 22 22 22 23 24 24 25 25 26 26 27 27 26 23 21 21 22 23 25 27 28 28 29 29 29 29 29 31 34 35 34 32 32 33 34 34 33 32 32 31 30 30 30 29 29 30 30 31 31 31 31 31 30 30 29 29 29 28 28 28 27 27 27 27 28 30 31 32
20 20 20 20 20 20 20 20 20 19 19 18 18 19 20 20 21 21 22 22 22 23 23 24 24 25 25 25 26 27 27 25 23 23 23 24 26 27 27 28 29 29 29 28 26 26 28 33 37 37 36 36 36 35 35 34 33 33 32 32 32 32 32 32 32 33 33 33 33 32 31 31 30 30 29 29 29 28 28 27 27 27 28 29 31 32
18 18 18 18 18 18 18 18 18 18 18 18 18 19 19 20 21 21 21 22 22 22 22 23 23 24 25 25 26 27 27 26 24 22 22 23 25 26 27 28 28 29 29 29 28 27 28 32 37 40 39 38 38 37 36 35 34 34 33 33 34 34 34 34 34 35 35 35 34 34 33 32 31 31 31 30 30 29 28 27 27 27 27 29 30 32
18 18 18 18 18 17 17 17 17 16 17 17 18 18 19 20 20 21 21 21 22 22 22 22 23 23 24 25 26 27 26 25 23 22 21 22 24 25 27 27 28 29 29 29 29 29 30 32 34 37 38 39 39 38 37 36 35 34 34 34 35 35 35 35 36 36 36 36 35 35 34 33 33 32 32 31 30 30 29 28 28 27 27 28 29 31
21 20 20 19 18 18 17 16 16 16 16 17 18 18 19 20 20 20 20 21 21 22 22 22 22 23 23 24 25 26 26 24 22 21 21 21 22 24 26 27 28 28 29 29 30 30 30 32 33 34 35 38 39 39 37 36 35 35 35 35 36 36 36 37 37 37 37 37 36 36 35 35 34 34 33 32 31 31 30 29 29 28 28 28 28 30
23 22 22 21 20 19 18 17 16 16 17 17 18 19 19 19 20 20 20 20 21 21 22 22 22 22 23 23 24 25 25 23 22 20 20 20 21 23 25 27 27 27 28 28 29 29 30 31 32 32 33 35 37 38 38 37 36 36 36 36 37 37 37 37 37 37 37 37 37 36 36 35 35 34 34 33 32 32 31 31 30 30 30 29 29 29
24 24 23 22 21 20 20 19 18 18 18 19 19 19 19 19 19 19 20 20 21 21 21 22 22 22 22 23 23 24 24 23 22 20 20 20 20 22 24 26 27 27 26 27 27 28 29 31 32 33 32 32 33 35 37 38 38 38 38 38 38 38 38 37 37 37 37 37 37 37 36 36 35 35 34 34 34 33 33 33 32 32 32 31 31 31
25 26 25 23 22 22 21 21 21 20 20 20 19 19 19 19 19 19 20 20 21 21 21 21 22 22 22 23 23 23 23 22 21 20 19 19 20 22 24 26 27 26 26 25 25 26 27 29 31 32 33 33 33 35 37 38 39 40 40 39 39 39 38 37 37 36 36 37 37 37 36 36 35 35 35 35 35 35 35 35 34 33 33 33 33 33
27 27 27 25 24 24 23 23 22 21 21 20 19 19 19 19 20 20 20 20 20 21 21 21 21 21 22 22 22 22 22 21 20 19 19 19 20 21 23 25 26 26 25 24 23 24 25 27 29 31 33 34 36 37 37 38 39 40 40 41 40 39 38 37 36 36 36 36 37 37 37 36 36 36 36 36 36 36 37 37 36 35 35 35 36 35
28 28 28 27 25 24 24 23 22 21 20 20 19 19 19 20 20 20 20 20 20 20 20 21 21 21 22 22 21 21 20 20 19 19 19 19 20 21 22 23 24 24 23 23 22 23 24 26 28 30 31 33 35 37 38 39 39 39 39 40 41 40 39 37 36 36 36 36 37 37 37 37 36 36 36 36 36 36 37 37 37 37 36 37 38 38
28 28 27 26 25 23 22 21 20 20 20 19 19 19 19 20 20 20 20 20 20 20 20 20 21 21 22 21 21 20 19 19 19 19 19 19 19 20 21 21 22 22 22 22 23 23 24 25 27 30 31 33 35 37 39 39 38 37 37 38 39 40 40 38 37 36 36 37 37 37 37 37 36 36 36 36 36 36 36 37 38 38 38 38 38 38
27 27 26 25 24 22 21 20 20 19 19 19 19 19 19 20 20 20 20 20 20 20 20 20 21 21 21 21 20 19 18 18 18 19 19 19 19 20 20 20 20 20 20 21 23 24 24 25 27 29 31 33 35 37 39 39 39 37 37 37 38 39 40 39 37 36 37 37 37 37 37 37 37 37 37 37 38 38 38 38 39 39 38 38 38 37
25 25 25 24 23 22 21 20 19 19 19 19 19 19 19 20 20 20 20 20 20 20 20 20 21 21 21 21 20 19 18 18 19 19 19 20 20 20 20 20 19 19 19 20 22 24 25 26 28 30 31 33 34 36 38 39 39 38 36 36 36 37 39 39 39 38 38 38 37 37 37 37 38 38 38 39 39 39 40 40 39 39 38 38 38 38
25 24 24 23 22 21 20 19 19 18 18 18 19 19 19 19 19 20 20 20 20 20 20 20 21 21 21 21 21 21 20 20 20 20 21 21 21 21 20 19 19 18 18 20 22 24 26 28 29 30 31 32 33 35 37 38 38 38 36 35 34 35 36 38 39 39 39 39 39 38 37 38 38 38 39 40 40 40 41 40 40 40 39 38 38 38
24 23 23 22 21 20 19 19 18 18 18 18 19 19 19 19 19 20 20 20 20 20 20 20 20 20 21 21 22 22 22 22 22 22 22 22 21 20 20 19 18 18 18 19 21 23 26 29 31 32 32 32 33 34 35 36 36 36 36 35 35 35 36 37 38 39 38 39 39 38 38 38 38 39 41 42 44 43 42 41 41 41 40 39 38 38
23 23 22 21 21 20 19 19 19 19 19 19 19 19 19 19 19 20 20 20 20 20 19 19 19 20 21 22 22 23 23 24 24 23 23 22 21 20 19 18 18 18 19 20 22 24 26 28 30 32 33 33 34 34 34 34 34 35 35 36 36 37 37 38 38 38 38 38 38 38 38 38 38 40 42 43 44 43 43 42 42 41 41 40 39 39
22 22 21 21 20 20 19 19 19 19 19 19 19 19 19 19 19 20 20 19 19 19 19 19 19 19 20 21 22 22 23 24 24 24 24 23 22 21 20 19 18 19 20 21 23 25 27 28 29 30 31 32 33 34 33 32 32 33 34 36 37 38 38 38 38 38 38 38 38 38 39 39 39 40 42 43 43 44 44 43 42 41 41 40 40 41
21 21 21 21 20 20 19 19 19 19 19 20 19 19 19 19 19 19 19 19 18 18 18 18 18 19 20 20 20 21 22 23 23 24 23 23 22 21 20 20 20 21 22 23 25 27 28 29 30 30 29 29 30 32 33 32 32 32 34 35 37 38 39 38 38 38 38 39 39 40 39 38 38 38 40 42 44 46 46 45 43 42 41 41 41 42
21 21 21 20 20 19 19 19 19 20 20 20 20 20 20 20 19 19 18 18 18 17 17 17 17 18 19 19 20 20 21 21 22 22 22 22 21 21 21 21 22 23 24 26 27 29 30 31 30 29 27 26 27 29 31 32 32 33 34 34 35 36 38 38 39 39 39 39 39 40 39 38 38 38 39 40 43 45 46 46 45 44 42 41 42 43
22 21 21 20 19 19 19 20 20 20 21 21 21 21 21 20 19 19 18 17 17 16 16 16 16 17 18 19 20 20 20 21 21 21 21 21 21 21 22 23 24 25 27 29 30 31 32 31 30 28 26 23 23 24 27 30 32 33 34 34 35 35 36 38 39 39 39 38 39 39 39 39 38 38 38 38 40 43 46 47 47 46 44 43 43 44
22 22 21 20 19 19 20 20 20 21 21 21 22 22 21 21 19 18 17 16 16 15 15 15 16 16 18 19 19 20 20 20 20 21 20 20 20 21 22 23 24 25 27 29 31 32 32 31 30 28 26 23 21 21 23 27 30 33 34 35 36 36 37 37 38 39 39 39 39 39 39 39 38 37 36 36 37 40 44 46 48 49 47 46 46 46
Wind_Direction
258 261 262 261 260 257 253 251 252 255 257 259 260 262 265 267 269 270 272 273 274 275 277 278 279 280 281 283 284 286 287 288 289 290 290 290 291 291 292 293 293 294 294 294 294 295 295 295 295 295 294 294 294 293 293 292 292 291 290 290 289 289 288 287 287 286 285 283 281 278 276 274 273 271 270 270 269 269 270 270 271 272 272 273 273 273
265 267 265 262 260 259 257 255 255 257 259 260 262 264 266 269 271 272 273 274 275 276 277 278 279 280 282 283 285 287 288 289 290 290 290 290 290 291 292 292 293 293 293 294 294 294 294 294 294 294 294 293 293 293 292 292 291 290 290 289 289 289 289 288 288 287 286 285 284 283 281 279 277 276 275 274 274 273 274 274 274 275 275 276 276 276
269 269 264 260 259 259 259 259 258 259 260 262 264 265 268 270 271 273 273 274 275 276 277 278 279 281 282 284 286 288 289 289 289 289 289 289 290 291 291 292 292 292 293 293 293 293 293 293 293 293 293 293 292 292 292 291 290 290 289 289 289 289 289 289 289 289 288 288 287 287 286 285 284 283 282 281 280 279 279 279 279 279 279 278 278 278
271 269 264 261 260 259 260 260 260 260 261 263 266 268 269 270 271 273 274 275 276 277 278 279 280 282 284 286 287 288 289 289 288 288 288 289 290 291 291 291 292 292 292 293 293 293 293 293 293 293 292 292 292 291 291 290 289 289 289 289 289 289 289 289 289 289 289 289 289 289 289 289 288 288 287 286 285 284 283 283 282 282 281 281 280 279
270 267 265 262 260 260 260 261 261 261 262 264 266 268 269 270 271 272 274 275 276 277 278 280 281 283 285 287 288 288 288 287 287 288 288 289 289 290 290 291 291 291 292 292 292 292 293 293 292 292 292 291 291 290 290 289 289 288 288 288 288 288 288 288 288 288 288 288 289 289 289 289 289 289 289 288 287 287 286 285 284 284 283 282 281 280
267 266 264 263 261 260 261 261 261 261 263 263 265 266 268 270 271 272 273 274 276 277 279 280 282 284 285 286 287 287 287 286 287 287 288 289 289 290 290 290 291 291 292 292 293 293 293 293 292 292 291 290 290 289 289 288 288 287 287 287 287 287 287 287 287 287 287 288 288 288 288 288 288 288 288 288 288 288 287 287 286 285 284 283 282 280
265 264 263 263 262 261 261 261 261 262 263 263 264 266 268 270 271 272 273 275 276 277 279 281 282 283 284 285 286 286 286 286 286 287 287 288 289 289 290 291 291 292 292 293 293 293 293 292 292 291 290 290 289 289 288 288 287 287 287 286 286 286 286 287 287 287 287 287 287 287 287 287 287 288 287 287 287 287 287 286 286 285 284 283 281 280
264 264 263 263 264 264 263 263 263 264 265 265 266 267 269 271 272 273 274 275 277 278 279 280 281 282 283 284 285 285 285 285 286 286 287 288 289 290 290 291 292 293 293 293 293 293 293 292 291 291 290 290 289 289 288 288 288 287 287 287 287 287 287 287 287 287 287 287 287 287 287 287 287 287 286 286 286 286 286 285 285 284 283 282 281 280
263 265 265 265 266 268 269 268 267 268 270 271 271 271 272 274 274 275 276 277 277 278 279 280 280 281 282 284 285 285 285 285 286 286 287 288 289 290 291 292 292 293 293 293 293 292 292 291 291 290 290 289 289 289 289 288 288 288 288 288 288 288 288 288 288 287 287 287 287 286 286 286 286 286 285 285 285 284 284 284 284 283 282 281 280 278
263 265 268 268 268 270 273 275 274 274 275 277 277 277 277 277 277 278 278 278 278 279 280 280 280 281 283 284 284 285 285 285 286 286 287 288 289 290 291 292 292 292 292 292 291 291 291 291 290 290 290 290 290 289 289 289 288 288 288 288 288 288 288 287 287 287 287 287 287 286 286 286 285 285 284 284 284 284 283 283 283 282 281 280 278 277
269 268 270 272 272 272 273 276 277 277 277 278 280 281 281 280 280 279 279 279 279 280 281 281 282 284 285 285 284 284 284 284 285 286 287 288 290 291 292 292 292 292 292 292 292 292 291 291 290 289 289 289 289 288 288 288 287 287 287 287 287 287 287 287 287 287 287 287 287 287 287 286 286 285 285 284 284 284 283 283 282 281 280 279 278 276
275 276 276 276 277 277 276 276 278 278 279 278 279 279 279 280 280 280 280 281 281 282 282 283 285 286 287 288 286 285 284 284 285 286 287 289 290 292 292 292 292 292 292 292 291 291 290 289 288 287 287 287 286 286 286 286 286 286 286 286 286 286 286 287 287 287 287 288 288 288 288 287 287 287 286 286 285 284 284 283 282 281 280 279 278 277
273 277 279 280 281 281 281 280 279 279 278 277 276 276 276 277 279 280 281 283 284 284 285 286 286 287 288 289 288 287 286 285 285 286 287 289 290 291 291 291 290 290 290 289 289 288 287 286 285 284 284 284 285 285 284 284 284 285 285 286 286 286 287 287 287 288 288 288 288 288 288 288 288 287 287 286 285 285 284 283 282 281 280 279 278 278
269 273 277 281 284 284 284 282 281 279 278 277 277 276 277 279 281 283 285 286 287 288 289 288 288 288 289 288 288 288 288 288 288 287 288 288 290 291 291 290 289 288 289 289 288 286 285 284 284 283 284 284 285 285 285 285 285 286 286 287 287 287 287 287 288 288 288 288 288 288 288 287 287 287 286 286 285 285 284 283 283 282 281 280 279 279
268 272 276 280 283 284 284 284 283 282 282 282 282 283 284 284 285 286 287 288 289 290 290 289 288 288 288 288 289 290 290 290 290 289 289 290 291 292 292 291 291 291 292 291 290 289 288 287 286 286 287 287 287 287 287 287 287 288 288 288 288 288 288 288 288 288 288 287 287 287 286 286 286 286 285 285 285 285 284 284 283 282 282 281 281 280
270 272 275 278 280 281 282 283 284 284 285 285 285 285 285 286 287 288 289 289 290 290 290 289 289 288 287 288 290 292 293 293 293 293 293 293 294 296 296 295 294 295 296 295 294 293 292 290 289 289 290 290 290 290 290 291 291 292 292 292 291 291 291 290 290 289 288 288 287 287 286 286 286 285 285 285 285 285 285 284 284 284 283 283 282 281
273 274 276 277 279 279 279 280 280 281 282 282 282 283 283 284 286 287 289 289 290 290 290 289 290 291 291 292 294 295 296 297 297 297 297 296 298 300 300 299 298 299 300 299 298 296 295 294 293 293 293 293 294 295 295 296 296 296 296 296 295 295 294 294 293 292 291 290 289 288 288 287 287 287 286 286 286 286 286 286 285 285 285 284 284 283
277 277 278 278 278 278 277 277 277 278 279 279 280 281 282 284 285 287 288 288 288 289 290 290 291 293 295 297 298 300 300 300 301 301 301 300 301 303 305 303 302 302 303 303 301 299 298 297 297 297 297 297 299 299 300 300 300 300 299 299 299 298 298 297 296 295 294 292 292 291 290 290 289 289 289 288 288 288 288 287 287 287 286 285 285 284
281 280 279 279 277 276 275 275 276 277 278 279 281 283 284 285 286 287 287 288 288 289 290 291 292 293 296 299 301 304 305 304 304 305 306 304 304 306 310 307 305 304 305 305 304 302 300 299 299 299 300 301 302 302 302 302 302 302 302 302 302 301 300 299 298 297 296 295 294 294 293 293 292 292 291 291 290 290 289 289 288 287 286 285 285 284
282 281 280 279 277 275 275 275 277 279 281 283 284 286 287 287 288 288 288 289 290 290 290 292 294 296 298 300 304 308 309 308 307 307 307 306 306 308 313 311 309 307 308 307 307 305 303 302 301 301 302 303 304 304 304 305 305 305 306 306 305 304 303 301 299 298 297 296 295 295 295 294 293 293 292 291 291 290 289 288 287 286 285 285 284 283
279 279 279 278 277 278 279 280 281 284 287 289 290 290 290 291 291 291 290 291 291 292 292 295 297 298 301 304 307 310 312 311 310 309 308 306 306 309 315 314 312 310 308 308 308 307 305 304 304 304 304 306 307 307 307 308 308 309 309 309 308 307 305 303 301 299 298 297 296 296 295 294 293 292 291 290 289 288 287 286 285 285 284 284 283 283
277 277 277 278 280 282 284 286 288 290 291 292 292 292 292 292 292 292 292 292 293 295 296 298 299 301 305 307 309 311 314 313 311 310 309 307 307 310 316 316 313 311 309 309 309 308 307 306 306 306 307 309 310 310 310 311 311 312 312 312 311 310 308 306 305 304 303 302 300 299 298 296 295 293 291 290 288 287 287 286 285 285 284 284 283 282
279 280 281 282 284 285 288 290 291 290 290 290 290 291 291 291 291 292 293 294 295 296 297 299 302 305 308 309 309 311 313 313 311 309 308 306 308 312 317 316 314 311 310 310 311 310 309 308 308 309 310 311 312 312 312 312 313 314 315 315 314 313 312 310 310 309 309 308 307 305 304 301 299 297 294 292 290 289 288 287 287 286 286 285 284 284
284 285 286 286 286 287 288 289 289 289 289 290 290 290 290 289 290 292 293 294 296 299 302 305 306 306 307 308 309 310 312 312 311 309 308 307 308 312 316 317 315 312 311 311 312 312 311 310 310 311 312 313 313 313 313 314 316 317 318 317 316 315 314 313 313 313 313 313 312 311 309 307 304 302 299 296 294 292 291 290 290 290 290 289 288 287
285 285 286 286 285 285 286 287 288 290 292 293 292 291 290 291 292 293 294 296 298 302 304 305 305 305 307 308 309 310 312 311 310 309 309 308 309 312 315 317 315 313 312 312 313 314 313 312 312 313 314 314 314 314 314 316 318 319 320 319 318 317 316 315 315 315 316 316 316 315 313 312 309 307 304 302 300 298 297 296 295 295 294 293 292 290
285 285 285 284 284 283 283 283 283 285 287 286 287 288 289 290 290 291 292 294 298 301 303 304 304 305 307 308 309 310 311 310 310 310 310 309 309 311 314 317 316 313 313 313 315 315 315 314 314 314 315 315 315 315 315 317 319 320 321 320 319 317 316 315 316 316 317 318 318 318 317 315 314 311 309 307 305 303 302 300 299 299 298 296 294 292
284 283 283 283 282 281 281 280 278 276 274 274 276 279 281 281 284 285 287 291 296 300 301 302 303 304 305 306 307 308 309 309 310 311 311 310 310 311 314 316 316 314 313 314 315 316 316 315 315 315 316 316 316 316 317 318 320 321 321 320 319 317 316 316 317 318 320 321 321 321 320 318 316 314 311 309 307 305 304 303 301 300 299 297 295 293
281 281 281 281 280 279 279 279 278 278 276 275 274 274 274 276 278 282 286 292 297 299 299 299 300 302 303 305 306 306 307 309 311 312 311 311 309 309 313 315 315 314 314 314 315 316 315 315 316 316 316 316 317 317 317 318 319 320 320 319 318 317 317 317 319 320 322 323 323 323 321 319 317 315 312 310 308 306 304 303 302 301 300 298 296 294
278 278 278 278 277 277 277 278 279 280 280 279 277 275 276 277 280 284 289 293 295 296 296 297 299 300 301 303 304 305 306 310 311 311 311 311 308 308 311 312 313 314 314 315 316 315 315 315 316 317 317 317 316 316 317 318 318 319 320 319 319 318 319 320 321 322 323 324 324 323 322 320 318 315 312 310 308 307 305 305 304 303 301 299 298 297
275 276 276 276 276 276 277 278 279 280 280 280 279 279 280 282 284 287 290 292 293 294 295 296 297 298 299 301 302 303 305 309 310 309 310 308 306 306 309 310 311 313 315 317 317 316 316 316 316 316 316 316 315 315 316 317 319 320 321 320 320 320 321 322 323 324 325 325 325 324 322 320 318 315 313 311 310 308 307 307 306 305 303 301 299 298
275 275 275 276 276 277 278 279 280 281 281 281 282 282 282 284 285 288 289 291 292 293 293 294 295 296 297 298 298 298 301 304 305 305 308 306 305 306 308 310 311 313 314 316 316 315 314 314 314 315 315 315 315 316 317 318 320 321 322 322 321 322 323 324 324 325 325 325 325 324 322 320 318 316 315 313 312 311 310 310 309 307 304 302 300 300
275 274 274 274 275 277 279 280 281 282 282 282 282 282 283 284 286 288 289 290 291 291 292 293 294 295 295 295 294 294 297 300 302 304 307 306 305 306 308 309 310 312 313 314 312 309 308 309 312 314 315 315 316 317 318 319 320 321 322 322 322 322 323 325 325 325 326 326 325 324 323 321 319 318 316 315 314 313 312 311 310 307 304 302 301 301
281 279 278 277 277 277 278 278 279 279 278 278 278 279 281 283 284 286 287 288 289 290 292 292 293 294 295 295 294 294 297 300 304 307 308 306 305 305 307 308 309 311 312 312 311 307 304 305 309 313 314 315 316 316 317 318 319 320 321 321 321 322 323 325 325 326 326 326 325 324 323 322 320 319 318 316 315 314 313 312 310 308 305 302 301 300
293 291 289 287 284 282 280 279 277 276 276 276 277 279 280 281 283 285 286 288 290 291 292 293 294 294 295 295 295 296 298 302 306 308 307 305 304 304 306 307 308 310 311 311 310 308 305 305 307 310 312 313 314 314 315 317 318 319 319 320 320 322 323 325 326 326 326 326 325 324 323 322 321 320 318 317 316 315 313 312 310 308 305 302 299 299
297 295 294 293 291 289 287 285 283 281 281 281 281 281 282 283 284 286 288 290 291 292 293 294 294 293 293 293 294 296 299 303 305 306 304 303 302 303 305 305 307 308 309 309 308 308 306 306 306 307 309 311 312 313 314 315 317 318 319 320 320 321 323 324 325 326 326 325 324 324 323 322 321 319 318 317 316 315 314 312 311 309 306 303 300 298
294 294 295 296 296 297 296 295 292 290 288 285 284 283 283 285 286 288 290 291 293 294 294 294 294 293 293 293 293 295 298 301 303 303 302 302 302 303 303 304 305 307 307 306 306 306 307 307 307 307 307 308 309 311 313 315 316 317 318 320 320 321 323 324 325 325 325 324 324 323 323 321 320 318 317 317 316 315 314 313 311 310 309 307 305 302
289 291 294 297 299 301 301 300 297 294 291 287 285 284 285 286 288 290 291 292 293 293 293 293 293 294 293 294 294 295 298 300 302 303 303 303 302 302 301 302 304 304 303 303 304 306 307 307 308 308 307 305 306 308 312 315 316 317 318 319 320 321 322 324 325 325 324 324 323 323 322 320 319 318 317 317 317 316 314 314 313 312 311 310 309 307
283 288 292 296 298 299 300 298 296 293 289 287 285 285 286 288 289 291 292 292 292 292 292 291 292 292 292 293 294 295 297 299 301 303 303 303 302 301 300 300 301 301 300 300 301 303 305 306 306 306 307 306 306 308 310 313 315 316 318 319 320 320 321 323 324 324 323 323 322 322 321 320 319 318 317 317 316 315 314 313 313 313 312 311 310 309
280 285 289 293 296 296 296 294 292 289 286 285 285 286 287 289 289 290 291 290 290 290 290 290 290 290 291 291 292 294 295 297 299 301 301 301 300 299 298 298 298 299 299 299 300 301 303 304 303 304 305 306 307 309 311 312 313 315 317 319 320 320 321 322 322 323 323 323 322 322 321 320 319 318 316 316 315 314 313 313 312 312 311 311 310 311
278 283 287 291 294 294 293 291 288 286 284 284 285 286 287 288 289 289 289 289 290 290 290 291 291 291 291 291 292 293 294 296 297 298 298 298 298 297 296 296 296 298 299 299 300 301 302 303 303 304 304 304 305 307 309 311 312 315 317 317 317 319 321 321 322 322 322 322 322 321 320 319 318 317 315 314 313 312 311 311 310 310 310 309 309 310
280 284 288 292 293 293 291 288 286 284 283 284 285 287 288 288 289 289 289 290 290 291 291 291 291 291 291 291 292 293 293 294 294 295 294 295 295 295 295 295 296 298 300 301 302 302 303 303 304 304 304 304 305 306 308 310 312 314 315 314 315 317 320 321 321 322 322 322 321 321 320 318 317 315 314 312 310 309 309 308 307 308 309 309 308 308
283 287 291 294 295 293 290 287 284 283 283 284 285 286 287 288 289 290 291 292 292 292 292 291 290 290 290 290 290 290 290 290 290 290 291 292 294 295 296 297 299 301 303 304 303 303 303 303 302 302 303 305 306 307 308 311 313 315 315 315 316 318 319 320 321 321 321 321 321 320 319 317 316 314 313 311 309 309 308 307 306 306 306 307 308 307
287 291 293 294 293 291 288 285 284 283 283 284 284 285 287 289 290 292 293 294 294 294 293 292 291 290 291 291 291 290 288 288 288 290 292 294 297 299 301 302 303 304 304 303 303 303 303 303 302 303 305 308 309 308 308 310 314 315 315 316 317 317 315 317 320 322 321 321 320 319 318 317 316 314 311 309 308 307 306 306 305 305 305 306 307 307
290 292 293 292 290 288 285 284 283 283 283 284 285 286 288 290 291 293 294 295 295 295 294 293 293 292 293 294 294 294 293 293 293 294 297 299 302 305 306 307 307 306 304 302 301 302 304 305 305 307 309 311 310 309 308 310 313 315 316 317 317 314 312 314 318 320 321 321 320 319 317 317 315 312 309 307 305 305 305 305 306 307 308 309 308 308
291 291 291 289 288 286 285 284 283 282 283 284 285 287 289 291 292 294 295 295 296 295 294 294 294 294 294 295 296 297 297 298 299 300 302 304 307 309 310 310 309 307 305 303 303 304 305 306 308 311 313 312 311 309 308 310 312 315 317 318 317 316 314 315 317 318 317 318 318 317 317 315 313 309 307 306 306 306 305 306 306 308 310 310 310 309
290 289 289 287 286 285 285 283 283 283 284 285 286 289 290 292 293 295 295 296 296 295 294 294 294 294 295 296 297 299 299 301 302 305 306 308 310 312 312 312 311 309 308 307 307 308 308 309 310 312 314 313 312 311 310 311 312 314 317 318 318 316 315 315 316 316 316 315 315 314 314 313 310 307 306 305 306 307 308 308 308 309 310 311 311 311
288 288 288 287 286 285 284 283 283 284 286 287 288 290 291 292 294 295 295 295 295 294 294 294 295 295 296 297 299 301 303 304 306 308 310 312 314 315 315 315 314 313 312 312 311 311 311 312 313 314 314 313 311 311 312 314 314 314 316 317 317 316 314 313 314 315 315 313 311 311 312 311 309 307 306 306 307 307 309 309 310 310 310 311 312 312
288 288 288 287 286 285 284 284 285 286 287 288 289 290 291 293 293 294 294 293 293 293 293 295 296 296 297 299 301 303 305 308 309 311 314 316 317 318 318 318 318 318 317 316 315 314 314 314 315 315 314 312 310 310 313 315 316 316 316 316 315 314 312 312 313 313 312 311 310 310 310 309 307 306 306 308 308 309 310 311 312 312 311 311 311 312
287 288 288 287 286 284 284 284 285 286 287 288 289 290 291 291 292 292 292 291 291 292 293 294 296 298 300 302 304 306 308 310 312 315 316 318 320 321 323 324 325 324 323 321 319 318 317 317 316 315 314 312 311 311 313 315 316 315 314 313 311 310 309 310 311 312 311 311 311 311 311 310 309 309 308 307 307 308 311 311 312 312 312 311 311 311
285 286 286 286 285 283 283 284 285 286 287 287 288 289 289 290 290 290 289 289 290 290 292 294 297 300 302 305 308 311 313 315 316 317 318 319 321 324 326 329 330 329 327 323 321 320 320 318 317 316 315 314 312 311 311 313 314 314 312 309 309 308 307 308 310 312 313 312 312 312 313 313 313 313 310 307 305 306 308 310 311 312 312 312 311 311
283 284 285 284 283 282 282 283 284 285 286 286 287 288 288 289 290 289 288 287 287 288 291 294 298 302 305 310 313 315 316 317 316 317 320 322 325 327 329 330 330 328 324 322 321 321 321 320 318 316 315 315 314 311 309 309 310 310 309 309 310 310 309 309 311 313 314 314 314 314 315 315 315 313 310 306 303 303 305 307 309 311 313 313 312 311